Regional Weather Roundup
Issued by NWS Wilmington, NC

Home | Current Version | Previous Version | Text Only | Print | Product List | Glossary On
Versions: 1 2 3 4 5 6 7 8 9 10 11 12 13 14 15 16 17 18 19 20 21 22 23 24 25 26 27 28 29 30 31 32 33 34 35 36 37 38 39 40 41 42 43 44 45 46 47 48 49 50
000
ASUS42 KILM 050013
RWRILM
RWRILM
REGIONAL HOURLY WEATHER ROUNDUP
NATIONAL WEATHER SERVICE WILMINGTON NC
800 PM EDT FRI SEP 04 2015

NOTE: "FAIR" INDICATES FEW OR NO CLOUDS BELOW 12,000 FEET WITH NO
SIGNIFICANT WEATHER AND/OR OBSTRUCTIONS TO VISIBILITY.

...............WFO WILMINGTON COUNTY WARNING AREA...............

......COASTAL NC AND SC COUNTIES......

CITY           SKY/WX    TMP DP  RH WIND       PRES   REMARKS
WILMINGTON     FAIR      81  70  69 CALM      29.96R
N MYRTLE BEACH FAIR      82  75  79 S3        29.98R
MYRTLE BEACH   CLEAR     82  72  69 S7        29.99R

......INLAND NC AND SC COUNTIES.......

CITY           SKY/WX    TMP DP  RH WIND       PRES   REMARKS
LUMBERTON      MOCLDY    83  67  58 E15       30.00R THUNDER
ELIZABETHTOWN  HVY RAIN  72  68  86 N3        30.00R
WHITEVILLE     FAIR      83  74  74 CALM      29.97S HX  90
FLORENCE       FAIR      81  76  84 S6        29.97R
DARLINGTON     FAIR      82  72  69 E3        29.99R

....................REST OF NORTH CAROLINA......................

.........EASTERN NC.........

CITY           SKY/WX    TMP DP  RH WIND       PRES   REMARKS
CAPE HATTERAS  FAIR      79  72  79 NE6       29.97R
JACKSONVILLE   FAIR      81  68  65 NW3       29.98R
MOREHEAD CITY  FAIR      79  71  76 N6        29.96R
KENANSVILLE      N/A     76  67  73 CALM      30.00S
NEW BERN       FAIR      80  71  74 NE8       29.99R
ELIZABETH CITY LGT RAIN  78  72  81 NE8       30.00S

.........CENTRAL NC.........

CITY           SKY/WX    TMP DP  RH WIND       PRES   REMARKS
RALEIGH DURHAM MOCLDY    77  70  79 CALM      30.02R
ROCKY MOUNT    FAIR      73  70  90 CALM      30.00R
ROANOKE RAPIDS NOT AVBL
FAYETTEVILLE   FAIR      76  64  66 N8        29.99S
HOFFMAN        LGT RAIN  75  71  86 E3        30.01R

.........WESTERN NC.........

CITY           SKY/WX    TMP DP  RH WIND       PRES   REMARKS
CHARLOTTE      MOCLDY    82  63  51 E15G26    30.02R THUNDER
GREENSBORO     LGT RAIN  73  69  87 N6        30.05S
HICKORY        NOT AVBL
BOONE          NOT AVBL
ASHEVILLE      NOT AVBL

.....................REST OF SOUTH CAROLINA.....................

.........EASTERN SC.........

CITY           SKY/WX    TMP DP  RH WIND       PRES   REMARKS
CHARLESTON     MOCLDY    78  69  73 CALM      29.96S
BEAUFORT MCAS  FAIR      77  72  84 CALM      29.95S
HILTON HEAD    PTCLDY    77  73  88 NW5       29.96S

.........CENTRAL SC.........

CITY           SKY/WX    TMP DP  RH WIND       PRES   REMARKS
COLUMBIA       FAIR      87  70  56 SW8       29.95R HX  92
ORANGEBURG     FAIR      80  70  71 SE6       29.98R THUNDER
SUMTER SHAW    FAIR      82  66  58 SW3       29.95R

.........WESTERN SC.........

CITY           SKY/WX    TMP DP  RH WIND       PRES   REMARKS
GREENVILLE     NOT AVBL
ROCK HILL      MOCLDY    82  70  66 CALM      30.00R
ANDERSON       FAIR      84  70  62 CALM      29.98R
CLEMSON        NOT AVBL
GREENWOOD      FAIR      80  68  66 SE3       29.99S


...................COASTAL AND OFFSHORE REPORTS..................

................LOCAL PIERS AND NC RESERVE................


STATION/POSITION TIME  SKY/WX   TEMP    WIND        PRES    VSBY
                                AIR SEA DIR/SP/G
                 (UTC)          (F)     (DEG/KT/KT) (MB)    (MI)
JOHNY MRCER PIER 2300            83 85  200/  6/  6 1014.0R
NC RESRV MASNBRO NOT AVBL
OCEAN CREST PIER NOT AVBL
SPRINGMAID  PIER 2300            83 85  130/  6/  7 1014.5S


................COASTAL AND OFFSHORE BUOYS................


STATION/POSITION TIME  SKY/WX   TEMP    WIND        PRES    VSBY
                                AIR SEA DIR/SP/G
                 (UTC)          (F)     (DEG/KT/KT) (MB)    (MI)
DIMNDSHOAL 41025 2350            81 84   30/ 12/ 14 1014.5R
WVE H/P(F/S)=  1/ 3 WND WVE H/P(F/S)=  2/ 3

CAPE LOOKOUT     0000            83     300/  5/  5 1014.3R
ONSLOW BAY 41036 NOT AVBL
ONSLOW BAY 41064 2308            83 84  210/  2/  4 1014.5R
ONSLOW BAY 41159 2325               84                N/A
WVE H/P(F/S)=  1/11

5SE WRITBC 41038 2308            83 83  210/  6/  8 1014.4R
MASNBO INL 41110 NOT AVBL
WILM HARBR 41108 2311               83                N/A
WVE H/P(F/S)=  1/ 5 WND WVE H/P(F/S)=  2/ 5

27SE WRITB 41037 2300            80 83  200/  2/  4   N/A
FRYING PAN 41013 2350            83 82   70/  4/  4 1015.0R
WVE H/P(F/S)=  1/11

SUNST NRSH 41024 NOT AVBL
CAPRS NRSH 41029 2308            83     140/  6/  8 1014.5S
EDISTO     41004 2350            83 85   60/  4/  4 1014.1F
WVE H/P(F/S)=  1/ 8 SWL H/P/D(F/S/D)=  2/ 8



..........OFFSHORE BUOYS BEYOND 100 NM OFFSHORE...........
.....IN A TRIANGLE---HAT TO BERMUDA TO BAHAMAS TO HAT.....


STATION/POSITION TIME  SKY/WX   TEMP    WIND        PRES    VSBY
                                AIR SEA DIR/SP/G
                 (UTC)          (F)     (DEG/KT/KT) (MB)    (MI)
150E HAT   41001 0000            82 83   70/  2/  4 1014.0R
W BERMUDA  41048 2350            82 84   10/  8/ 10 1012.6F
WVE H/P(F/S)=  2/10 WND WVE H/P(F/S)=  2/ 4 SWL H/P/D(F/S/D)=  2/ 90/10

ATLANTIC S 41049 2350            80 85  220/ 12/ 14 1014.4F
WVE H/P(F/S)=  4/ 6 WND WVE H/P(F/S)=  3/ 4 SWL H/P/D(F/S/D)=  3/310/ 6

E BAHAMAS  41046 2350            85 87  240/  2/  4 1015.4R
WVE H/P(F/S)=  2/ 8 SWL H/P/D(F/S/D)=  2/110/ 8

NE BAHAMAS 41047 2350            84 86  300/  2/  4 1013.0S
WVE H/P(F/S)=  2/10 WND WVE H/P(F/S)=  2/ 3 SWL H/P/D(F/S/D)=  2/100/10

120E CANVRL41010 2320            83 86   10/  6/  8 1013.8R

END



USA.gov is the U.S. government's official web portal to all federal, state and local government web resources and services.